Regional Weather Roundup
Issued by NWS State College, PA

Home | Current Version | Previous Version | Graphics & Text | Print | Product List | Glossary Off
Versions: 1 2 3 4 5 6 7 8 9 10 11 12 13 14 15 16 17 18 19 20 21 22 23 24 25 26 27 28 29 30 31 32 33 34 35 36 37 38 39 40 41 42 43 44 45 46 47 48 49 50

000
ASUS41 KCTP 021910
RWRCTP

REGIONAL WEATHER ROUNDUP
NATIONAL WEATHER SERVICE STATE COLLEGE PA
200 PM EST MON MAR 02 2015

Note: "fair" indicates few or no clouds below 12,000 feet with no
significant weather and/or obstructions to visibility.

* = STATION THAT DOES NOT REPORT PRECIPITATION /E.G. RAIN...SNOW...ETC/
    THUNDER OR FOG.

PAZ002>004-007>009-013>016-020>023-029>032-022000-
WESTERN PENNSYLVANIA

CITY           SKY/WX    TMP DP  RH WIND       PRES   REMARKS
ERIE           SUNNY     25  15  66 W15G23    30.42S WCI  13
MEADVILLE        N/A     25  10  53 W13       30.35F WCI  14
FRANKLIN*      PTSUNNY   27  10  50 NW12G21   30.35F
NEW CASTLE     FAIR      28  13  53 W8        30.41F
BEAVER COUNTY  CLOUDY    27  18  69 W12       30.39F
BUTLER*        PTSUNNY   27  16  63 W8        30.39F
PITTSBURGH INT PTSUNNY   28  16  60 W14       30.39F
PITTSBURGH     CLOUDY    28  11  48 W8G18     30.37F
INDIANA*       CLOUDY    27  18  69 NW10G21   30.37F
LATROBE        PTSUNNY   28  18  64 W18       30.39F
WASHINGTON CO* PTSUNNY   28  16  59 W9G16     30.41F
$$

PAZ004>006-010>012-017>019-024>028-033>037-041-042-045-046-049>053-022000-
CENTRAL PENNSYLVANIA

CITY           SKY/WX    TMP DP  RH WIND       PRES   REMARKS
BRADFORD       MIX PCPN  22   8  55 NW17G30   30.23F WCI   8
DUBOIS         CLOUDY    24  12  60 W16G26    30.27F WCI  11
CLEARFIELD     MIX PCPN  27  13  55 NW14G26   30.28F
JOHNSTOWN      CLOUDY    23  13  65 NW21      30.24F WCI   8
ALTOONA        MOSUNNY   28  14  55 NW18G32   30.27F
STATE COLLEGE  PTSUNNY   28  14  54 NW16G22   30.27F
WILLIAMSPORT   MOSUNNY   34  11  38 W16G24    30.24S
SELINSGROVE    SUNNY     35  14  42 W13G21    30.26F
FT INDIANTOWN  SUNNY     35  13  40 W13G23    30.23F
CAPITAL CITY   SUNNY     35  13  40 NW18G29   30.26S
HARRISBURG     MOSUNNY   35  17  47 NW23G30   30.25F
YORK           SUNNY     35  14  42 W21G29    30.26S
$$

PAZ038>040-043-044-047-048-054-055-060>062-067>071-022000-
EASTERN PENNSYLVANIA

CITY           SKY/WX    TMP DP  RH WIND       PRES   REMARKS
SCRANTON       SUNNY     33  11  39 NW15G25   30.16S
MOUNT POCONO   MIX PCPN  29  10  45 NW25G33   30.06F WCI  14
ALLENTOWN      SUNNY     36  12  37 W18G28    30.17F
QUAKERTOWN*    CLEAR     36  14  41 NW14G20   30.18F
READING        LGT RAIN  36  14  40 NW26      30.21S
LANCASTER      SUNNY     35  16  45 NW24      30.22F
COATESVILLE    CLEAR     36  21  55 NW15G24   30.21S
POTTSTOWN      SUNNY     35  15  44 W13G20    30.21F
BLUE BELL      SUNNY     37  18  44 NW14G21   30.18F
DOYLESTOWN     SUNNY     36  16  44 NW14G25   30.16F
WILLOW GROVE   NOT AVBL
NORTH PHILA    SUNNY     39  15  37 W17G26    30.20F
PHILADELPHIA   MOSUNNY   39  16  39 NW17G24   30.22F
$$



USA.gov is the U.S. government's official web portal to all federal, state and local government web resources and services.